sat.trackr.live / text

‹ back to catalog

ONEWEB-0680

NORAD 56716 · 2023-068G

PAYLOAD ACTIVE UNKNOWN

§ Identity

Operator
Country
UK
Launch date
2023-05-20
Launch site
AFWTR
Launch vehicle
Mass (kg)
RCS (m²)

Purposes: comms

External: N2YO · Heavens-Above · Gunter

§ Orbital elements

Epoch: 2026-09-19T17:11:38.676768Z

Period
108.94 min
Inclination
87.9288°
Eccentricity
0.0001907
Mean motion
13.21826196 rev/d
Perigee alt
1,176.3 km
Apogee alt
1,179.2 km
Semi-major
7,555.9 km
B*
-1.2940e-5
RAAN
225.1615°
Arg perigee
96.1100°
Mean anomaly
264.0252°
Rev number
16,358

§ Raw data

ONEWEB-06801 56716U 23068G   26262.71641987  .00000008  00000+0 -12940-4 0  99932 56716  87.9288 225.1615 0001907  96.1100 264.0252 13.21826196163588

JSON: /api/v1/satellites/56716 · /tle

For live sub-satellite position, see the globe view (requires WebGL).

§ Visibility from observer

Set your observer location to see the next 7 days of passes ≥ 10°. The values pass through the URL so the page stays shareable.

No JS? Fill the form by hand. The geolocation button needs JavaScript.